User: anonymous   Login
Location: ??????
(41.3164°N, 22.6615°E)
Time: 02:25:38
(UTC+00:00)
Language:

Cosmos 405 Rocket - Orbit

View from above orbital plane
View from above orbital plane
View from above satellite
View from above satellite

Ground track
Ground track

The orbit data is extracted from the following two-line orbital elements,

1 05118U 71028B   22018.51735204  .00002244  00000-0  11387-3 0  9998
2 05118  81.2538  29.8086 0047328  61.9638 298.6365 15.15487457757638
Epoch (UTC): 18 January 2022 12:24:59
Eccentricity: 0.0047328
inclination: 81.2538°
perigee height: 487 km
apogee height: 552 km
right ascension of ascending node: 29.8086°
argument of perigee: 61.9638°
revolutions per day: 15.15487457
mean anomaly at epoch: 298.6365°
orbit number at epoch: 75763

The dashed part of the orbit path shows where the satellite is in the earth's shadow,  

DLR